Cosmos 1933 - Orbit

View from above orbital plane
View from above orbital plane
View from above satellite
View from above satellite

Ground track
Ground track

The orbit data is extracted from the following two-line orbital elements,

1 18958U 88020A   13140.43611820  .00001536  00000-0  12430-3 0  9902
2 18958 082.5311 096.6902 0010805 298.0268 061.9862 14.99060748368113
Epoch (UTC): 20 May 2013 10:28:00
Eccentricity: 0.0010805
inclination: 82.5311°
perigee height: 562 km
apogee height: 577 km
right ascension of ascending node: 96.6902°
argument of perigee: 298.0268°
revolutions per day: 14.99060748
mean anomaly at epoch: 61.9862°
orbit number at epoch: 36811

The dashed part of the orbit path shows where the satellite is in the earth's shadow,  

Developed and maintained by Chris Peat, Heavens-Above GmbH. Please read the updated FAQ before sending e-mail. Imprint. DLR